Starlink 5594

operational
NORAD ID: 55742 Int'l Des: 2023-028 Owner: SPXS Country: US Constellation: starlink
LEOCIRCULAR

About Starlink 5594

Description loading...

Live Position

Loading 3D Globe...

Upcoming Passes

Altitude History

Altitude vs Time

uPlot chart will show altitude changes over time

Two-Line Element Set

1 55742U 23028B 25305.15666901 -.00001212 00000-0 -93813-4 0 9993
2 55742 69.9990 208.6732 0003052 268.1439 91.9371 14.98311456146786
Epoch: Nov 1, 2025 • Age: 33 hours

Current Status

Altitude 591.5 km
Velocity 7.56 km/s
Sub-Earth Point -56.50°S, 176.95°W
Launch Date Mar 3, 2023
Age 2.6 years
Type internet

Technical Details

Classification Payload
Mass 305.00 kg
Dry Mass 290.00 kg
Total Mass 305.00 kg
Length 0.20 m
Diameter 2.80 m
Span 9.00 m
Shape Box + pan
Manufacturer SPXS
Bus Type Starlink
Phase Status In Orbit
Owner/State SPXS/US

Large Constellations

Loading constellations...